Погода в Кара-Балта

Киргизия     42°49′11″N   73°50′38″E
темп.,
°C
ветер,
м/с
пор.,
м/с
влажн.,
%
обл.,
%
осадки,
мм/ч
давл.,
гПа
погр.,
м
10 мая, пн
пн1000:00+13вюв128297 0.0 101745
03:00+14ю228495 0.0 101659
06:00+12ююз118495 0.0 101510
09:00+15ссз3380100 0.0 1015586
12:00+14зсз338398 0.3 1015532
15:00+17з1171100 0.4 1014803
18:00+16зюз1272100 0.8 1014258
21:00+14ю457597 3.1 1015107
11 мая, вт
вт1100:00+14юз116399 3.1 101412
03:00+14ю1169100 0.1 101415
06:00+12зюз1174100 0.3 101413
09:00+15с1169100 0.0 1015326
12:00+18с3261100 0.2 10151105
15:00+16зюз2372100 1.4 1016503
18:00+15ю5673100 2.1 1017132
21:00+13ю556415 0.1 101853
12 мая, ср
ср1200:00+12ююз33595 0.1 101821
03:00+11ююз32580 0.0 101715
06:00+11ююз32580 0.0 101818
09:00+16св22522 0.0 1017608
12:00+18св435239 0.1 10171487
15:00+19вюв234589 0.2 10162069
18:00+15ююв2268100 0.9 101862
21:00+14ююз2266100 0.3 101920
13 мая, чт
чт1300:00+11юз2267100 0.3 101817
03:00+10зюз2264100 0.0 101731
06:00+10з1265100 0.0 101742
09:00+13с225983 0.0 1017332
12:00+16с325688 0.0 1017893
15:00+17с32508 0.0 10161501
18:00+17с334612 0.0 10161316
21:00+11ю225454 0.0 101812
14 мая, пт
пт1400:00+10ююз32508 0.0 101815
03:00+9ююз32470 0.0 101717
06:00+9ююз224399 0.0 101711
09:00+14с21410 0.0 1018486
12:00+16ссв32420 0.0 10181223
15:00+18св33383 0.0 10171736
18:00+17св22414 0.0 10181683
21:00+12ю22590 0.0 101916